Regional Weather Roundup
Issued by NWS Kansas City/Pleasant Hill, MO

Home | Current Version | Previous Version | Graphics & Text | Print | Product List | Glossary Off
Versions: 1 2 3 4 5 6 7 8 9 10 11 12 13 14 15 16 17 18 19 20 21 22 23 24 25 26 27 28 29 30 31 32 33 34 35 36 37 38 39 40 41 42 43 44 45 46 47 48 49 50

000
ASUS43 KEAX 251910
RWREAX

WEATHER ROUNDUP FOR EASTERN KANSAS AND NORTHWEST MISSOURI
NATIONAL WEATHER SERVICE KANSAS CITY/PLEASANT HILL MO
200 PM CDT MON JUL 25 2016

KSZ040-057-103>105-MOZ028-029-037-043-252000-
...KANSAS CITY METROPOLITAN AREA...

CITY           SKY/WX    TMP DP  RH WIND       PRES   REMARKS
K.C. INTL      CLOUDY    82  71  69 NE12      30.05F
K.C. DOWNTOWN  PTSUNNY   81  71  71 NE10      30.03F
LEES SUMMIT    CLOUDY    78  71  79 NE8       30.05F
OLATHE - IXD   CLOUDY    79  71  76 NE8       30.04F
OLATHE - OJC   CLOUDY    78  70  76 E12       30.03F
LAWRENCE       CLOUDY    78  71  79 NE10      30.03F

$$

MOZ001>008-011>017-020>025-030>033-038>040-044>046-053-054-252000-
...NORTHERN AND CENTRAL MISSOURI...

CITY           SKY/WX    TMP DP  RH WIND       PRES   REMARKS
ST. JOSEPH     CLOUDY    83  67  58 N8        30.06F
MOSBY          MOCLDY    79  68  69 NE3       30.05F
WHITEMAN AFB   CLOUDY    78  75  90 N3        30.03F
CLINTON        CLOUDY    79  73  83 CALM      30.03F
SEDALIA        CLOUDY    79  73  82 NW5       30.06F
WARSAW         NOT AVBL
CHILLICOTHE      N/A     85  69  58 N5        30.07F
KIRKSVILLE     CLOUDY    85  64  49 NE8       30.07F

$$

MOZ041-047>049-056>058-063>065-088>090-097-252000-
...EASTERN AND SOUTHERN MISSOURI...

CITY           SKY/WX    TMP DP  RH WIND       PRES   REMARKS
ST. LOUIS INTL CLOUDY    87  73  62 CALM      30.01F HX  94
SPIRIT OF STL  MOSUNNY   87  76  69 W8        29.99F HX  97
COLUMBIA       CLOUDY    80  74  81 VRB6      30.05F
JEFFERSON CITY CLOUDY    82  73  74 VRB7      30.03F
ROLLA          PTSUNNY   81  72  74 N6        30.04F
OSAGE BEACH    CLOUDY    78  73  84 VRB6      30.05F
SPRINGFIELD    CLOUDY    78  69  73 E7        30.01F
BRANSON        PTSUNNY   77  72  83 CALM      30.06F
JOPLIN         CLOUDY    78  72  81 SE6       29.98F
WEST PLAINS    MOSUNNY   87  72  60 W6        30.04F HX  93

$$

IAZ060-094-KSZ022-034>040-054-083-096-NEZ052-066-093-252000-
...KANSAS...SOUTHEAST NEBRASKA AND IOWA...

CITY           SKY/WX    TMP DP  RH WIND       PRES   REMARKS
TOPEKA         CLOUDY    77  69  76 N7        30.03F
MANHATTAN      CLOUDY    77  70  79 N6        30.07F
EMPORIA        CLOUDY    77  72  84 NW9       30.06R
CHANUTE        CLOUDY    80  72  76 S10       30.01F
WICHITA        CLOUDY    84  69  60 NW5       30.06F
OMAHA          MOSUNNY   87  65  47 VRB5      30.11F
LINCOLN        SUNNY     86  57  37 CALM      30.12F
FALLS CITY     MOSUNNY   84  64  50 NE8       30.07F
LAMONI         MOSUNNY   83  67  58 N9        30.08F
DES MOINES     MOSUNNY   87  60  40 N9        30.08F

$$




USA.gov is the U.S. government's official web portal to all federal, state and local government web resources and services.